EW1336 Weather Reports


Display with metric or nautical units.
time (UTC)temp
F
wind
direction
speed
MPH
gust
MPH
rain 1hr
in
rain 24hr
in
rain mn
in
humidity
%
barometer
mb
20260906064534 46 231 0.0 0.0 0.00 0.00 0.00 74 1010.6
20260906063031 46 264 0.0 1.0 0.00 0.00 0.00 75 1010.7
20260906061538 46 231 0.0 0.0 0.00 0.00 0.00 75 1010.9
20260906060029 46 262 0.0 1.0 0.00 0.00 0.00 75 1011.0
20260906054529 46 238 0.0 1.0 0.00 0.00 0.00 75 1010.9
20260906053029 46 236 0.0 0.0 0.00 0.00 0.00 73 1011.0
20260906051533 46 210 0.0 1.0 0.00 0.00 0.00 72 1011.1
20260906050028 46 263 0.0 1.0 0.00 0.00 0.00 71 1011.1
20260906044527 46 354 0.0 1.0 0.00 0.00 0.00 70 1011.2
20260906043027 47 283 0.0 1.0 0.00 0.00 0.00 70 1011.0
20260906041537 47 266 0.0 1.0 0.00 0.00 0.00 71 1010.9
20260906040025 47 221 0.0 0.0 0.00 0.00 0.00 70 1010.8
20260906034525 47 276 0.0 1.0 0.00 0.00 0.00 70 1010.7
20260906033024 48 264 0.0 1.0 0.00 0.00 0.00 69 1010.2
20260906031523 48 280 0.0 3.0 0.00 0.00 0.00 69 1009.9
20260906030032 48 266 0.0 1.0 0.00 0.00 0.00 69 1009.7
20260906024522 48 262 0.0 0.0 0.00 0.00 0.00 69 1009.8
20260906023024 49 278 0.0 1.0 0.00 0.00 0.00 68 1010.0
20260906021522 50 238 0.0 1.0 0.00 0.00 0.00 67 1009.9
20260906020021 50 248 0.0 3.0 0.00 0.00 0.00 66 1009.8
20260906014538 51 250 0.0 1.0 0.00 0.00 0.00 64 1009.8
20260906013024 52 255 0.0 2.0 0.00 0.00 0.00 61 1009.6
20260906011520 53 270 0.0 2.0 0.00 0.00 0.00 59 1009.5
20260906010039 54 273 0.0 3.0 0.00 0.00 0.00 57 1009.9
20260906004517 56 267 0.0 3.0 0.00 0.00 0.00 56 1010.0
20260906003017 56 240 0.0 4.0 0.00 0.00 0.00 55 1010.0
20260906001518 56 203 0.0 3.0 0.00 0.00 0.00 53 1010.0
20260906000015 57 273 0.0 4.0 0.00 0.00 0.00 53 1010.1
20260905234514 57 269 0.0 3.0 0.00 0.00 0.00 53 1010.1
20260905233014 58 267 1.0 4.0 0.00 0.00 0.00 50 1010.0
20260905231513 59 266 0.0 4.0 0.00 0.00 0.00 51 1010.2
20260905230006 59 245 0.0 4.0 0.00 0.00 0.00 49 1010.4
20260905224505 59 260 0.0 2.0 0.00 0.00 0.00 52 1010.6
20260905223011 59 283 0.0 7.0 0.00 0.00 0.00 50 1010.7
20260905221501 58 316 0.0 5.0 0.00 0.00 0.00 48 1010.8
20260905220100 58 274 0.0 3.0 0.00 0.00 0.00 50 1010.8
20260905214558 57 266 0.0 4.0 0.00 0.00 0.00 51 1010.8
20260905213059 58 245 0.0 6.0 0.00 0.00 0.00 48 1011.0
20260905211555 59 210 0.0 4.0 0.00 0.00 0.00 47 1011.2
20260905210056 60 269 0.0 3.0 0.00 0.00 0.00 48 1011.3
20260905204550 59 273 0.0 3.0 0.00 0.00 0.00 50 1011.4
20260905203056 59 269 0.0 6.0 0.00 0.00 0.00 51 1011.5
20260905201557 59 262 0.0 4.0 0.00 0.00 0.00 50 1011.6
20260905200046 58 265 1.0 7.0 0.00 0.00 0.00 48 1011.6
20260905194541 57 253 0.0 3.0 0.00 0.00 0.00 53 1011.5
20260905193040 57 271 0.0 3.0 0.00 0.00 0.00 53 1011.8
20260905191538 55 273 0.0 2.0 0.00 0.00 0.00 58 1011.9
20260905190037 55 291 0.0 4.0 0.00 0.00 0.00 58 1012.2
20260905184545 54 281 0.0 3.0 0.00 0.00 0.00 60 1012.2
20260905183043 54 269 0.0 5.0 0.00 0.00 0.00 60 1012.1
20260905181536 54 262 0.0 2.0 0.00 0.00 0.00 57 1012.2
20260905180033 54 5 0.0 3.0 0.00 0.00 0.00 60 1012.1
20260905174529 53 245 0.0 2.0 0.00 0.00 0.00 62 1012.0
20260905173028 51 281 0.0 4.0 0.00 0.00 0.00 61 1012.1
20260905171524 51 238 0.0 3.0 0.00 0.00 0.00 66 1012.0
20260905170020 49 269 0.0 1.0 0.00 0.00 0.00 69 1011.9
20260905164520 49 283 0.0 4.0 0.00 0.00 0.00 70 1011.9
20260905163018 48 203 0.0 1.0 0.00 0.00 0.00 74 1012.0
20260905161518 47 257 0.0 0.0 0.00 0.00 0.00 75 1012.0
20260905160015 47 198 0.0 1.0 0.00 0.00 0.00 75 1012.0
20260905154515 47 267 0.0 1.0 0.00 0.00 0.00 74 1011.8
20260905153019 47 270 0.0 2.0 0.00 0.00 0.00 74 1011.8
20260905151519 48 266 0.0 1.0 0.00 0.00 0.00 73 1011.9
20260905150019 47 201 0.0 2.0 0.00 0.00 0.00 76 1012.1
20260905144517 46 225 0.0 0.0 0.00 0.00 0.00 77 1012.1
20260905143009 45 257 0.0 0.0 0.00 0.00 0.00 79 1012.0
20260905141504 45 257 0.0 0.0 0.00 0.00 0.00 78 1012.0
20260905140004 45 242 0.0 0.0 0.00 0.01 0.00 79 1011.9
20260905134503 45 243 0.0 0.0 0.00 0.01 0.00 79 1011.8
20260905133003 45 210 0.0 2.0 0.00 0.01 0.00 78 1011.5
20260905131611 45 212 0.0 0.0 0.00 0.01 0.00 78 1011.3
20260905130057 45 243 0.0 0.0 0.00 0.01 0.00 78 1011.3
20260905124555 45 238 0.0 1.0 0.00 0.01 0.00 77 1011.3
20260905123102 45 271 0.0 1.0 0.00 0.01 0.00 75 1011.5
20260905121554 45 276 0.0 1.0 0.00 0.01 0.00 75 1011.6
20260905120053 45 270 0.0 2.0 0.00 0.01 0.00 74 1011.7
20260905114550 45 225 0.0 0.0 0.00 0.01 0.00 76 1011.8
20260905113052 45 214 0.0 0.0 0.00 0.01 0.00 76 1011.8
20260905111553 44 257 0.0 0.0 0.00 0.01 0.00 79 1011.9
20260905110048 44 248 0.0 0.0 0.00 0.01 0.00 79 1012.0
20260905104602 43 126 0.0 0.0 0.00 0.01 0.00 81 1011.9
20260905103046 43 131 0.0 0.0 0.00 0.01 0.00 81 1011.9
20260905101547 43 131 0.0 0.0 0.00 0.01 0.00 81 1011.9
20260905100045 42 119 0.0 1.0 0.00 0.01 0.00 82 1012.1
20260905094543 42 60 0.0 0.0 0.00 0.01 0.00 82 1012.1
20260905093044 42 53 0.0 0.0 0.00 0.01 0.00 82 1012.0
20260905091543 43 54 0.0 0.0 0.00 0.01 0.00 81 1011.9
20260905090059 43 54 0.0 0.0 0.00 0.01 0.00 81 1012.1
20260905084536 44 54 0.0 0.0 0.00 0.01 0.00 80 1012.1
20260905083035 45 276 0.0 0.0 0.00 0.01 0.00 79 1012.1
20260905081536 45 274 0.0 0.0 0.00 0.01 0.00 79 1012.1
20260905080033 45 274 0.0 0.0 0.00 0.01 0.00 78 1012.2
20260905074533 45 273 0.0 1.0 0.00 0.01 0.00 78 1012.1
20260905073034 45 273 0.0 0.0 0.00 0.01 0.00 78 1012.0
20260905071530 44 263 0.0 1.0 0.00 0.01 0.00 78 1011.9
20260905070027 44 281 0.0 1.0 0.00 0.01 0.00 79 1011.8